[[{"header":{"parameterUnit":"m.s-1","parameterCategory":1,"la1":30.2991,"la2":30.254,"lo1":-89.0895,"lo2":-89.0444,"dy":0.0017,"dx":0.0017,"nx":28,"ny":28,"refTime":"2025-08-04T21:00:00:Z","depth":0,"parameterNumber":2,"parameterNumberName":"U-component_of_WINDS"},"data":[0,0,0,0,0,0,0,0,0,0,0,0,0,0,0,0,0,0,0,0,0,0,0,0,0,0,0,0,0,0,0,0,0,0,0,0,0,0,0,0,0,0,0,0,0,0,0,0,0,0,0,0,0,0,0,0,0,0,-2.6758,-2.6757,0,-2.667,-2.6669,-2.6668,-2.6594,-2.6593,-2.6593,-2.6592,-2.6499,-2.6497,-2.6496,0,0,0,0,0,0,0,0,0,0,0,0,0,-2.6861,-2.686,-2.6759,-2.6757,-2.6756,-2.667,-2.6669,-2.6668,-2.6594,-2.6593,-2.6593,-2.6592,-2.65,-2.6498,-2.6495,0,0,0,0,0,0,0,0,0,0,0,0,0,-2.6799,-2.6859,-2.6759,-2.6709,-2.6704,-2.667,-2.6669,-2.6667,-2.6595,-2.6593,-2.6592,-2.6591,-2.65,-2.6498,-2.6495,-2.6502,0,0,-2.6487,-2.6486,0,0,0,0,0,0,0,0,-2.6802,-2.6795,-2.6718,-2.6713,-2.6707,-2.6642,-2.6671,-2.6612,-2.6595,-2.6636,-2.6592,-2.6591,-2.6547,-2.6541,-2.6527,-2.6498,-2.6494,-2.6487,-2.6485,-2.6484,-2.6483,0,0,0,0,0,0,0,-2.6807,-2.6799,-2.6723,-2.6717,-2.671,-2.6691,-2.6681,-2.6659,-2.6599,-2.6632,-2.6627,-2.6618,-2.6544,-2.6529,-2.6524,-2.6492,-2.6487,-2.6485,-2.6483,-2.6482,-2.6462,-2.6463,0,0,0,0,0,0,-2.6819,-2.6803,-2.6726,-2.6721,-2.6753,-2.669,-2.6678,-2.6664,-2.6599,-2.6588,-2.6619,-2.6614,-2.6534,-2.6527,-2.652,-2.6522,-2.6484,-2.6482,-2.648,-2.6461,-2.6462,-2.6463,0,0,0,0,0,0,-2.6822,-2.6813,-2.673,-2.676,-2.6748,-2.6689,-2.6673,-2.6663,-2.6648,-2.6589,-2.6578,-2.6615,-2.6533,-2.6524,-2.6507,-2.6518,-2.6481,-2.6478,-2.6459,-2.6461,-2.6462,-2.6527,0,0,0,0,0,0,-2.6825,-2.6814,-2.6817,-2.6761,-2.6747,-2.6719,-2.6674,-2.6662,-2.6644,-2.6638,-2.6582,-2.6572,-2.6532,-2.6511,-2.6504,-2.6513,-2.6476,-2.6458,-2.646,-2.6462,-2.6523,-2.653,-2.6536,0,0,0,0,0,-2.6829,-2.6839,-2.6818,-2.6809,-2.6749,-2.672,-2.6711,-2.6665,-2.6645,-2.6647,-2.6608,-2.6574,-2.6518,-2.651,-2.6501,-2.651,-2.6457,-2.6459,-2.6462,-2.652,-2.6529,-2.6536,0,0,0,0,0,0,-2.6898,-2.6831,-2.6807,-2.6799,-2.6766,-2.6707,-2.6708,-2.6676,-2.6647,-2.6643,-2.6586,-2.6574,-2.6562,-2.6535,-2.6527,-2.6512,-2.6483,-2.6484,-2.653,-2.6538,-2.6544,-2.655,-2.6474,0,0,0,0,0,-2.6913,-2.6896,-2.6837,-2.6836,-2.6821,-2.6768,-2.6753,-2.672,-2.6683,-2.6668,-2.6629,-2.6593,-2.6567,-2.6551,-2.6524,-2.6519,-2.6505,-2.6521,-2.6528,-2.6533,-2.6534,-2.6526,-2.6532,-2.6471,-2.6471,-2.647,0,0,-2.6943,-2.6904,-2.6896,-2.6849,-2.6819,-2.6801,-2.6756,-2.6739,-2.6724,-2.6665,-2.6646,-2.6616,-2.6572,-2.656,-2.6553,-2.6537,-2.6548,-2.6536,-2.6541,-2.6538,-2.6529,-2.6535,-2.654,-2.6472,-2.6472,-2.6472,0,0,-2.6987,-2.6957,-2.6951,-2.6922,-2.6878,-2.6842,-2.6841,-2.6787,-2.6765,-2.6745,-2.6699,-2.668,-2.6638,-2.6607,-2.6587,-2.6618,-2.6584,-2.6611,-2.6644,-2.6637,-2.6642,-2.6646,-2.6654,-2.6658,-2.6612,-2.6612,-2.6612,0,-2.7029,-2.7001,-2.6953,-2.6937,-2.6917,-2.6864,-2.6856,-2.683,-2.6779,-2.6766,-2.6749,-2.6692,-2.6659,-2.6638,-2.6646,-2.6632,-2.6626,-2.6616,-2.6645,-2.6649,-2.6652,-2.6659,-2.6663,-2.6616,-2.6615,-2.6615,-2.6615,0,-2.7053,-2.7034,-2.7035,-2.6987,-2.6966,-2.6956,-2.6905,-2.689,-2.6859,-2.6825,-2.6803,-2.6762,-2.6724,-2.6717,-2.6687,-2.6691,-2.6682,-2.6656,-2.6625,-2.6662,-2.6668,-2.667,-2.6621,-2.6619,-2.6618,-2.6618,0,0,-2.7138,-2.7063,-2.7064,-2.704,-2.6987,-2.697,-2.6956,-2.692,-2.6907,-2.6874,-2.6859,-2.6823,-2.6798,-2.6774,-2.674,-2.6735,-2.6759,-2.6709,-2.6707,-2.6717,-2.6757,-2.6776,-2.678,-2.6736,-2.6737,-2.6737,-2.676,0,-2.7172,-2.7144,-2.71,-2.7086,-2.7066,-2.7014,-2.7002,-2.6966,-2.6934,-2.6911,-2.6875,-2.6849,-2.682,-2.6805,-2.6797,-2.6758,-2.6765,-2.6755,-2.672,-2.6719,-2.673,-2.6783,-2.6803,-2.6827,-2.6762,-2.6763,-2.6763,0,-2.7208,-2.7177,-2.7161,-2.7107,-2.7097,-2.7086,-2.7048,-2.7028,-2.6986,-2.6962,-2.6936,-2.6898,-2.6878,-2.6852,-2.6823,-2.6817,-2.6799,-2.6778,-2.6777,-2.677,-2.6742,-2.6775,-2.6833,-2.6836,-2.6767,-2.6766,-2.6766,0,-2.7268,-2.7223,-2.7206,-2.7188,-2.7125,-2.7119,-2.7092,-2.7049,-2.703,-2.6996,-2.6982,-2.6947,-2.6927,-2.69,-2.6853,-2.6839,-2.6828,-2.6798,-2.6806,-2.6807,-2.6804,-2.6805,-2.6858,-2.6798,-2.6798,-2.6797,-2.6797,0,-2.7309,-2.7301,-2.7232,-2.7222,-2.7211,-2.7159,-2.7149,-2.7117,-2.7079,-2.7061,-2.7014,-2.6998,-2.6938,-2.6914,-2.6877,-2.6857,-2.6849,-2.6828,-2.6817,-2.683,-2.6833,-2.6817,-2.6813,-2.6798,-2.6798,-2.6798,-2.6798,0,-2.7374,-2.7328,-2.7307,-2.7249,-2.7234,-2.7228,-2.7177,-2.7165,-2.7129,-2.7106,-2.7098,-2.7042,-2.701,-2.6962,-2.6916,-2.6891,-2.6876,-2.6861,-2.6891,-2.6884,-2.6893,-2.6892,-2.6936,-2.6938,-2.6879,-2.688,-2.6881,0,-2.7402,-2.7394,-2.7335,-2.732,-2.7295,-2.7271,-2.725,-2.7199,-2.7179,-2.713,-2.7123,-2.7088,-2.7058,-2.701,-2.6964,-2.6928,-2.691,-2.6928,-2.6905,-2.6917,-2.6907,-2.6908,-2.6905,-2.6933,-2.6934,-2.6935,-2.6936,0,-2.7456,-2.7433,-2.7406,-2.737,-2.7347,-2.7317,-2.7283,-2.7273,-2.7214,-2.7194,-2.7162,-2.7138,-2.7091,-2.7056,-2.7014,-2.6985,-2.6949,-2.6944,-2.6943,-2.6955,-2.6971,-2.696,-2.6903,-2.6942,-2.6942,-2.6941,-2.6941,-2.6941,-2.7501,-2.7491,-2.7448,-2.7418,-2.7388,-2.7357,-2.7342,-2.7304,-2.7277,-2.7235,-2.7206,-2.7175,-2.7131,-2.7071,-2.7043,-2.7017,-2.7002,-2.7001,-2.7001,-2.7001,-2.7005,-2.6977,-2.7009,-2.7009,-2.7009,-2.7008,-2.7008,0,-2.755,-2.752,-2.7493,-2.7448,-2.7424,-2.7395,-2.7356,-2.7337,-2.7311,-2.7273,-2.7244,-2.7206,-2.7171,-2.7123,-2.7084,-2.7072,-2.7055,-2.7064,-2.7063,-2.7056,-2.7022,-2.7025,-2.7078,-2.7078,-2.7078,-2.7078,-2.7078,-2.7078,-2.7573,-2.7553,-2.7526,-2.7489,-2.7458,-2.7428,-2.7408,-2.7379,-2.7348,-2.7308,-2.7279,-2.7248,-2.7205,-2.7163,-2.7129,-2.7116,-2.7102,-2.7116,-2.7097,-2.7065,-2.7059,-2.7053,-2.7055,-2.7114,-2.7114,-2.7133,-2.7133,-2.7133]},{"header":{"parameterUnit":"m.s-1","parameterCategory":1,"la1":30.2991,"la2":30.254,"lo1":-89.0895,"lo2":-89.0444,"dy":0.0017,"dx":0.0017,"nx":28,"ny":28,"refTime":"2025-08-04T21:00:00:Z","depth":0,"parameterNumber":3,"parameterNumberName":"V-component_of_WINDS"},"data":[0,0,0,0,0,0,0,0,0,0,0,0,0,0,0,0,0,0,0,0,0,0,0,0,0,0,0,0,0,0,0,0,0,0,0,0,0,0,0,0,0,0,0,0,0,0,0,0,0,0,0,0,0,0,0,0,0,0,0.1978,0.198,0,0.2114,0.2115,0.2117,0.2168,0.2167,0.2167,0.2166,0.2307,0.2311,0.2316,0,0,0,0,0,0,0,0,0,0,0,0,0,0.1768,0.1772,0.1978,0.198,0.1982,0.2113,0.2115,0.2117,0.2168,0.2167,0.2167,0.2166,0.2306,0.2311,0.2316,0,0,0,0,0,0,0,0,0,0,0,0,0,0.1877,0.1773,0.1978,0.2023,0.2028,0.2113,0.2115,0.2118,0.2168,0.2167,0.2167,0.2166,0.2304,0.231,0.2317,0.2368,0,0,0.2336,0.2338,0,0,0,0,0,0,0,0,0.1871,0.1885,0.2015,0.202,0.2026,0.2123,0.2093,0.2201,0.2168,0.2115,0.2166,0.2166,0.2247,0.2258,0.2284,0.2374,0.238,0.2336,0.234,0.2343,0.2344,0,0,0,0,0,0,0,0.1863,0.1879,0.2032,0.2016,0.2023,0.2038,0.2052,0.2114,0.2183,0.2119,0.2123,0.2139,0.225,0.2278,0.2288,0.2382,0.2336,0.2341,0.2345,0.2348,0.2523,0.2524,0,0,0,0,0,0,0.1848,0.1873,0.2028,0.2036,0.1945,0.2042,0.2058,0.2093,0.2182,0.2195,0.2139,0.2141,0.2268,0.2281,0.2293,0.236,0.2342,0.2348,0.2352,0.2522,0.2523,0.2524,0,0,0,0,0,0,0.1843,0.1861,0.2022,0.1956,0.1977,0.2046,0.2084,0.2096,0.2124,0.2197,0.221,0.2155,0.2268,0.2285,0.2349,0.2366,0.2351,0.2357,0.2521,0.2522,0.2524,0.2493,0,0,0,0,0,0,0.1837,0.1859,0.1878,0.1955,0.198,0.2074,0.2085,0.2099,0.2134,0.2138,0.2216,0.2228,0.2269,0.2339,0.2355,0.2374,0.2362,0.252,0.2522,0.2523,0.2493,0.2494,0.2494,0,0,0,0,0,0.1829,0.1864,0.1879,0.1897,0.2005,0.2075,0.209,0.2135,0.2135,0.2156,0.2203,0.2226,0.2361,0.2346,0.2364,0.2385,0.2519,0.2521,0.2523,0.2493,0.2493,0.2494,0,0,0,0,0,0,0.1787,0.1875,0.1892,0.1953,0.2006,0.2084,0.2111,0.2134,0.2188,0.2189,0.2244,0.2262,0.2322,0.236,0.2341,0.244,0.2442,0.2448,0.2413,0.2414,0.2414,0.2404,0.2367,0,0,0,0,0,0.1785,0.1833,0.1908,0.1955,0.1981,0.2041,0.2073,0.2104,0.2161,0.2184,0.2236,0.2292,0.2347,0.2383,0.2438,0.2499,0.2518,0.2523,0.2523,0.2523,0.2527,0.2564,0.2568,0.2531,0.2531,0.2531,0,0,0.1781,0.1835,0.1862,0.1948,0.1992,0.2043,0.2059,0.2111,0.215,0.2192,0.2256,0.2296,0.2363,0.2426,0.2457,0.246,0.2542,0.2525,0.2525,0.253,0.2567,0.257,0.2573,0.2532,0.2532,0.2532,0,0,0.18,0.1845,0.189,0.1934,0.2002,0.2042,0.2053,0.2127,0.2155,0.2221,0.2254,0.2301,0.2395,0.2441,0.2477,0.2515,0.2538,0.2532,0.2533,0.2569,0.2572,0.2575,0.2589,0.2594,0.2536,0.2536,0.2536,0,0.1787,0.1863,0.191,0.1961,0.1998,0.2039,0.2085,0.2127,0.2209,0.2234,0.2236,0.2356,0.2404,0.2479,0.2489,0.2516,0.2531,0.2523,0.2567,0.2571,0.2574,0.2589,0.2594,0.2535,0.2535,0.2535,0.2535,0,0.1844,0.1896,0.1925,0.2003,0.2043,0.2092,0.2148,0.2183,0.2211,0.2251,0.2318,0.2377,0.2445,0.2465,0.2492,0.2545,0.2545,0.2556,0.2559,0.2576,0.259,0.2596,0.2533,0.2533,0.2534,0.2534,0,0,0.1839,0.1944,0.1954,0.199,0.2069,0.2111,0.2162,0.2228,0.2258,0.2314,0.2359,0.2439,0.245,0.2491,0.2524,0.2555,0.2583,0.2563,0.2565,0.2565,0.2646,0.2638,0.2643,0.2599,0.26,0.2601,0.2641,0,0.1869,0.1961,0.2006,0.2079,0.2129,0.2169,0.2214,0.2268,0.2307,0.2357,0.2401,0.2457,0.2467,0.2492,0.2524,0.2572,0.26,0.257,0.2642,0.2644,0.2625,0.2651,0.2642,0.2677,0.2647,0.2648,0.2649,0,0.1916,0.1971,0.2049,0.2123,0.2146,0.2185,0.2251,0.2297,0.2359,0.2386,0.2432,0.2464,0.2521,0.252,0.26,0.2578,0.2611,0.2639,0.2642,0.2651,0.2648,0.2661,0.2689,0.2694,0.2658,0.2657,0.2657,0,0.1906,0.2,0.206,0.209,0.2177,0.2204,0.2242,0.2304,0.2341,0.2399,0.2424,0.2487,0.2522,0.2571,0.262,0.2615,0.2696,0.2699,0.2721,0.272,0.2736,0.2735,0.277,0.2756,0.2756,0.2756,0.2756,0,0.1935,0.1981,0.2057,0.2093,0.2147,0.2199,0.2251,0.2292,0.2347,0.2393,0.2432,0.2475,0.2537,0.2588,0.2627,0.2688,0.2703,0.2727,0.2737,0.2724,0.2721,0.2747,0.2746,0.2757,0.2757,0.2757,0.2756,0,0.1933,0.1985,0.2052,0.213,0.2151,0.2187,0.2254,0.2292,0.2334,0.2392,0.2409,0.2475,0.2537,0.2591,0.2673,0.2699,0.2762,0.2774,0.2741,0.2746,0.2766,0.2764,0.2819,0.283,0.2807,0.2808,0.2808,0,0.1948,0.1985,0.2067,0.21,0.2137,0.2191,0.223,0.2283,0.2322,0.2396,0.2426,0.249,0.2545,0.2643,0.2699,0.2762,0.2776,0.2791,0.2786,0.2772,0.2778,0.2775,0.2779,0.2791,0.2791,0.2791,0.2791,0,0.197,0.1994,0.2048,0.2112,0.2157,0.2209,0.2263,0.2289,0.2352,0.2394,0.2458,0.25,0.2585,0.2649,0.2719,0.2759,0.2786,0.2793,0.2801,0.2789,0.2768,0.2781,0.2742,0.2791,0.2791,0.2791,0.2791,0.2791,0.1978,0.2013,0.2076,0.2136,0.2182,0.2232,0.2271,0.2318,0.2372,0.2445,0.2473,0.2539,0.2602,0.2698,0.2739,0.2792,0.2796,0.2808,0.2812,0.2814,0.2812,0.2759,0.2804,0.2805,0.2805,0.2805,0.2805,0,0.2003,0.2046,0.21,0.2174,0.2221,0.2242,0.2303,0.2342,0.2398,0.2455,0.2508,0.2582,0.2646,0.2707,0.2773,0.2804,0.2818,0.2819,0.2818,0.2827,0.2804,0.279,0.2807,0.2807,0.2807,0.2807,0.2807,0.2807,0.2021,0.2082,0.2114,0.2199,0.2243,0.2307,0.234,0.2387,0.2432,0.2513,0.2566,0.2605,0.2664,0.2735,0.2794,0.2811,0.2834,0.2832,0.2852,0.2829,0.2829,0.2828,0.2815,0.2837,0.2837,0.2871,0.2871,0.2871]}]]